CFJAK BGKK-BGGH

Flight info

Callsign CFJAK
Flight time N/A
Altitude 24000
Route DA DCT ASTAN DCT NAPIB DCT EVULO DCT BAMAM
Aircraft BE6G/L-SDFGRY/C

Departure

Time N/A
Airport Kulusuk Airport (BGKK)

Arrival

Time 2026-04-30 18:48
Airport Nuuk International Airport (BGGH)
Time Latitude Longitude Altitude Speed Heading
2026-04-30 17:39 65.44370 -39.58303 19359 ft 224 kts 266°
2026-04-30 17:41 65.42546 -39.87540 20772 ft 220 kts 265°
2026-04-30 17:42 65.42084 -39.94821 21110 ft 219 kts 265°
2026-04-30 17:42 65.41406 -40.05609 21607 ft 216 kts 265°
2026-04-30 17:43 65.40966 -40.12724 21917 ft 215 kts 265°
2026-04-30 17:44 65.40301 -40.23331 22393 ft 213 kts 265°
2026-04-30 17:44 65.39634 -40.33852 22912 ft 212 kts 265°
2026-04-30 17:46 65.38519 -40.51190 23666 ft 208 kts 264°
2026-04-30 17:47 65.37637 -40.64664 23972 ft 206 kts 264°
2026-04-30 17:48 65.36733 -40.78296 23983 ft 208 kts 264°
2026-04-30 17:48 65.36044 -40.88545 23981 ft 206 kts 264°
2026-04-30 17:49 65.35111 -41.02272 24028 ft 211 kts 264°
2026-04-30 17:50 65.34148 -41.16230 24041 ft 213 kts 264°
2026-04-30 17:51 65.33413 -41.26756 24043 ft 214 kts 264°
2026-04-30 17:52 65.32668 -41.37301 24043 ft 214 kts 264°
2026-04-30 17:53 65.31410 -41.54892 24035 ft 215 kts 264°
2026-04-30 17:54 65.30388 -41.68961 24036 ft 215 kts 264°
2026-04-30 17:55 65.29356 -41.82967 23986 ft 213 kts 263°
2026-04-30 17:56 65.28314 -41.96927 23991 ft 214 kts 263°
2026-04-30 17:57 65.27522 -42.07420 23988 ft 214 kts 263°
2026-04-30 17:58 65.26721 -42.17914 23983 ft 214 kts 263°
2026-04-30 17:59 65.25643 -42.31903 23948 ft 214 kts 263°
2026-04-30 18:00 65.24549 -42.45908 23955 ft 214 kts 263°
2026-04-30 18:00 65.23720 -42.56398 23949 ft 214 kts 263°
2026-04-30 18:01 65.23164 -42.63388 23941 ft 215 kts 263°
2026-04-30 18:02 65.22323 -42.73874 23945 ft 215 kts 263°
2026-04-30 18:02 65.21481 -42.84274 23946 ft 215 kts 262°
2026-04-30 18:03 65.20623 -42.94776 23954 ft 216 kts 262°
2026-04-30 18:04 65.19754 -43.05317 23951 ft 216 kts 262°
2026-04-30 18:05 65.18580 -43.19394 23950 ft 217 kts 262°
2026-04-30 18:06 65.17393 -43.33469 23959 ft 217 kts 262°
2026-04-30 18:07 65.16191 -43.47550 23959 ft 217 kts 262°
2026-04-30 18:08 65.15285 -43.58052 23962 ft 217 kts 261°
2026-04-30 18:09 65.14060 -43.72100 23982 ft 216 kts 261°
2026-04-30 18:10 65.12734 -43.86063 23982 ft 217 kts 260°
2026-04-30 18:11 65.11384 -44.00055 23974 ft 217 kts 259°
2026-04-30 18:11 65.10358 -44.10574 24011 ft 219 kts 260°
2026-04-30 18:12 65.07953 -44.34941 24010 ft 221 kts 260°
2026-04-30 18:13 65.06268 -44.51743 24011 ft 222 kts 259°
2026-04-30 18:13 65.02445 -44.89119 24041 ft 222 kts 259°
2026-04-30 18:14 64.98991 -45.22039 24038 ft 222 kts 258°
2026-04-30 18:15 64.94425 -45.64413 24029 ft 221 kts 258°
2026-04-30 18:15 64.89686 -46.07121 24044 ft 226 kts 257°
2026-04-30 18:16 64.86431 -46.35747 24035 ft 227 kts 257°
2026-04-30 18:16 64.83119 -46.64329 24010 ft 227 kts 257°
2026-04-30 18:17 64.81439 -46.78617 24009 ft 227 kts 257°
2026-04-30 18:17 64.79745 -46.92894 24009 ft 227 kts 257°
2026-04-30 18:17 64.76900 -47.16572 23997 ft 227 kts 256°
2026-04-30 18:18 64.75169 -47.30802 23982 ft 229 kts 256°
2026-04-30 18:18 64.73402 -47.45195 23962 ft 230 kts 256°
2026-04-30 18:18 64.71617 -47.59605 23964 ft 231 kts 256°
2026-04-30 18:18 64.69816 -47.74014 23962 ft 231 kts 256°
2026-04-30 18:19 64.67998 -47.88429 23959 ft 231 kts 255°
2026-04-30 18:19 64.66162 -48.02854 23959 ft 232 kts 255°
2026-04-30 18:19 64.64313 -48.17247 23961 ft 232 kts 255°
2026-04-30 18:19 64.63682 -48.22127 23952 ft 231 kts 255°
2026-04-30 18:20 64.63218 -48.25709 23951 ft 231 kts 255°
2026-04-30 18:20 64.62754 -48.29287 23952 ft 230 kts 255°
2026-04-30 18:20 64.62289 -48.32861 23951 ft 230 kts 255°
2026-04-30 18:20 64.61821 -48.36445 23836 ft 235 kts 255°
2026-04-30 18:21 64.61338 -48.40157 23584 ft 244 kts 255°
2026-04-30 18:21 64.60837 -48.43987 23314 ft 250 kts 255°
2026-04-30 18:21 64.60324 -48.47892 23036 ft 254 kts 255°
2026-04-30 18:21 64.59801 -48.51855 22770 ft 257 kts 254°
2026-04-30 18:22 64.59274 -48.55858 22492 ft 260 kts 254°
2026-04-30 18:22 64.58212 -48.63876 21970 ft 262 kts 254°
2026-04-30 18:22 64.57673 -48.67929 21709 ft 262 kts 254°
2026-04-30 18:23 64.57133 -48.71980 21451 ft 262 kts 254°
2026-04-30 18:23 64.56592 -48.76034 21202 ft 262 kts 254°
2026-04-30 18:23 64.56050 -48.80083 20968 ft 262 kts 254°
2026-04-30 18:23 64.55505 -48.84134 20709 ft 263 kts 254°
2026-04-30 18:24 64.54410 -48.92265 20177 ft 265 kts 254°
2026-04-30 18:24 64.53857 -48.96359 19883 ft 266 kts 254°
2026-04-30 18:24 64.53301 -49.00463 19590 ft 266 kts 253°
2026-04-30 18:25 64.52743 -49.04570 19302 ft 266 kts 253°
2026-04-30 18:25 64.51627 -49.12749 18704 ft 265 kts 253°
2026-04-30 18:25 64.51069 -49.16823 18425 ft 265 kts 253°
2026-04-30 18:26 64.49954 -49.24943 17830 ft 263 kts 253°
2026-04-30 18:26 64.49396 -49.28986 17519 ft 263 kts 253°
2026-04-30 18:26 64.48840 -49.33010 17218 ft 262 kts 253°
2026-04-30 18:27 64.47725 -49.41050 16626 ft 261 kts 253°
2026-04-30 18:27 64.47167 -49.45057 16318 ft 261 kts 253°
2026-04-30 18:28 64.46048 -49.53067 15755 ft 261 kts 253°
2026-04-30 18:28 64.45488 -49.57066 15476 ft 261 kts 252°
2026-04-30 18:28 64.44363 -49.65066 14958 ft 261 kts 252°
2026-04-30 18:29 64.43798 -49.69065 14711 ft 261 kts 252°
2026-04-30 18:29 64.42106 -49.80993 13909 ft 261 kts 252°
2026-04-30 18:30 64.40965 -49.89001 13372 ft 264 kts 252°
2026-04-30 18:30 64.39801 -49.97120 12813 ft 267 kts 252°
2026-04-30 18:31 64.39217 -50.01182 12527 ft 264 kts 252°
2026-04-30 18:31 64.38033 -50.09031 11990 ft 254 kts 250°
2026-04-30 18:32 64.36884 -50.16661 11469 ft 249 kts 250°
2026-04-30 18:32 64.36306 -50.20409 11214 ft 247 kts 250°
2026-04-30 18:32 64.35156 -50.27834 10697 ft 244 kts 250°
2026-04-30 18:33 64.34585 -50.31518 10443 ft 243 kts 250°
2026-04-30 18:33 64.33448 -50.38830 9976 ft 241 kts 250°
2026-04-30 18:33 64.32882 -50.42461 9730 ft 240 kts 250°
2026-04-30 18:34 64.32315 -50.46081 9464 ft 239 kts 250°
2026-04-30 18:34 64.31191 -50.53256 8924 ft 237 kts 250°
2026-04-30 18:34 64.30632 -50.56814 8653 ft 236 kts 250°
2026-04-30 18:35 64.30073 -50.60357 8384 ft 235 kts 250°
2026-04-30 18:35 64.29517 -50.63885 8129 ft 234 kts 250°
2026-04-30 18:35 64.28962 -50.67393 7893 ft 233 kts 250°
2026-04-30 18:36 64.27864 -50.74316 7386 ft 230 kts 249°
2026-04-30 18:36 64.27314 -50.77771 7140 ft 230 kts 249°
2026-04-30 18:36 64.25585 -50.83746 6766 ft 224 kts 225°
2026-04-30 18:37 64.24503 -50.86289 6626 ft 222 kts 226°
2026-04-30 18:37 64.23489 -50.88943 6471 ft 220 kts 229°
2026-04-30 18:37 64.22516 -50.91652 6308 ft 219 kts 230°
2026-04-30 18:37 64.21539 -50.94330 6172 ft 219 kts 229°
2026-04-30 18:38 64.20557 -50.96991 6011 ft 218 kts 229°
2026-04-30 18:38 64.19580 -50.99641 5871 ft 217 kts 229°
2026-04-30 18:38 64.18606 -51.02280 5699 ft 217 kts 229°
2026-04-30 18:38 64.17635 -51.04914 5545 ft 215 kts 229°
2026-04-30 18:39 64.16675 -51.07506 5487 ft 211 kts 229°
2026-04-30 18:39 64.15726 -51.10068 5364 ft 212 kts 229°
2026-04-30 18:39 64.14772 -51.12644 5244 ft 212 kts 229°
2026-04-30 18:39 64.13814 -51.15226 5106 ft 213 kts 229°
2026-04-30 18:40 64.12855 -51.17813 4935 ft 213 kts 229°
2026-04-30 18:40 64.11894 -51.20395 4850 ft 213 kts 229°
2026-04-30 18:40 64.10935 -51.22963 4732 ft 212 kts 229°
2026-04-30 18:40 64.09532 -51.26733 4514 ft 212 kts 229°
2026-04-30 18:41 64.07611 -51.31871 4220 ft 214 kts 229°
2026-04-30 18:41 64.05649 -51.37116 3959 ft 219 kts 227°
2026-04-30 18:41 64.03657 -51.42429 3675 ft 221 kts 228°
2026-04-30 18:41 64.01652 -51.47753 3503 ft 219 kts 227°
2026-04-30 18:42 63.99774 -51.52726 3494 ft 213 kts 227°
2026-04-30 18:42 63.97908 -51.58012 3492 ft 218 kts 241°
2026-04-30 18:42 63.97485 -51.61330 3494 ft 221 kts 262°
2026-04-30 18:45 64.08294 -51.75716 2558 ft 191 kts 19°
2026-04-30 18:45 64.09531 -51.74829 2275 ft 181 kts 17°
2026-04-30 18:45 64.10701 -51.73995 2007 ft 172 kts 20°
2026-04-30 18:46 64.11786 -51.73203 1746 ft 151 kts 17°
2026-04-30 18:46 64.12730 -51.72533 1529 ft 135 kts 19°
2026-04-30 18:46 64.13587 -51.71904 1356 ft 125 kts 18°
2026-04-30 18:46 64.14400 -51.71315 1156 ft 120 kts 17°
2026-04-30 18:47 64.15171 -51.70756 967 ft 113 kts 17°
2026-04-30 18:47 64.15906 -51.70225 792 ft 108 kts 17°
2026-04-30 18:47 64.16595 -51.69727 631 ft 103 kts 17°
2026-04-30 18:47 64.17260 -51.69243 485 ft 99 kts 16°
2026-04-30 18:48 64.17903 -51.68779 333 ft 95 kts 17°
2026-04-30 18:48 64.18500 -51.68349 264 ft 77 kts 18°
2026-04-30 18:48 64.18904 -51.68058 273 ft 33 kts 19°
2026-04-30 18:48 64.18963 -51.67908 274 ft 11 kts 15°
2026-04-30 18:49 64.19036 -51.67865 274 ft 11 kts 28°
2026-04-30 18:49 64.19086 -51.67740 274 ft 12 kts 106°
2026-04-30 18:49 64.19062 -51.67535 274 ft 14 kts 67°
2026-04-30 18:49 64.19121 -51.67442 274 ft 9 kts 343°
2026-04-30 18:50 64.19140 -51.67535 274 ft 0 kts 261°
2026-04-30 18:50 64.19140 -51.67542 274 ft 0 kts 260°